EST,Max TemperatureF,Mean TemperatureF,Min TemperatureF,Max Dew PointF,MeanDew PointF,Min DewpointF,Max Humidity, Mean Humidity, Min Humidity, Max Sea Level PressureIn, Mean Sea Level PressureIn, Min Sea Level PressureIn, Max VisibilityMiles, Mean VisibilityMiles, Min VisibilityMiles, Max Wind SpeedMPH, Mean Wind SpeedMPH, Max Gust SpeedMPH,PrecipitationIn, CloudCover, Events, WindDirDegrees
2012-11-1,68,58,48,45,37,19,82,54,16,29.98,29.91,29.85,10,10,10,14,7,25,0.00,0,,244
2012-11-2,75,60,46,48,37,28,72,51,31,30.05,29.98,29.90,10,10,10,14,6,21,0.00,0,,241
2012-11-3,66,57,48,63,51,39,100,76,42,30.14,30.05,29.98,10,10,9,12,5,,0.00,0,,260
2012-11-4,78,69,60,66,62,57,100,86,51,30.06,30.00,29.93,10,10,10,10,6,,0.03,1,Thunderstorm,202
2012-11-5,66,60,53,63,53,45,100,81,49,30.06,30.00,29.93,10,10,3,12,4,,0.00,0,,8
2012-11-6,57,52,46,54,48,41,94,81,67,30.02,29.96,29.89,10,10,5,14,8,20,0.03,2,Rain,11
2012-11-7,53,48,42,43,41,39,100,83,58,30.01,29.95,29.89,10,10,7,14,8,17,0.00,3,,328
2012-11-8,64,53,42,45,41,34,100,79,32,30.17,30.10,30.00,10,9,4,9,4,16,0.00,0,,294
2012-11-9,62,52,41,50,42,36,100,80,39,30.31,30.24,30.17,10,10,6,7,3,,0.00,0,,307
2012-11-10,69,56,42,54,47,36,100,89,28,30.39,30.34,30.29,10,8,5,6,1,,0.00,0,,30
2012-11-11,80,66,53,64,58,54,100,94,51,30.43,30.37,30.27,10,8,1,7,4,,0.00,2,Rain,24
2012-11-12,77,68,59,66,64,59,100,94,69,30.35,30.29,30.21,10,6,0,6,2,,0.00,3,Fog-Rain,81
2012-11-13,73,64,53,64,60,52,100,92,73,30.29,30.22,30.16,10,9,5,16,5,23,0.00,4,,356
2012-11-14,53,52,50,54,49,46,100,87,77,30.36,30.28,30.24,10,10,7,16,12,22,0.00,8,,14
2012-11-15,53,50,46,50,48,45,100,92,88,30.25,30.22,30.18,10,9,1,17,11,29,0.00,8,Rain,5
2012-11-16,53,50,48,48,48,46,100,90,77,30.30,30.26,30.20,10,8,2,13,10,17,0.00,7,,4
2012-11-17,57,52,46,48,45,39,82,77,63,30.35,30.30,30.27,10,10,9,16,11,22,0.00,3,,12
2012-11-18,53,52,50,52,49,46,100,88,77,30.28,30.25,30.21,10,9,2,18,15,29,0.00,6,Rain,360
2012-11-19,62,58,53,54,52,50,94,89,72,30.22,30.17,30.13,10,9,4,16,12,25,0.00,5,,1
2012-11-20,66,58,50,54,51,46,100,89,52,30.16,30.10,30.05,10,10,7,13,7,17,0.00,0,,357
2012-11-21,64,55,46,52,46,43,100,82,48,30.14,30.10,30.06,10,8,2,10,4,16,0.00,0,,2
2012-11-22,64,52,39,43,41,34,100,77,32,30.23,30.17,30.13,10,10,10,12,7,22,0.00,0,,359
2012-11-23,66,52,37,54,44,37,100,87,37,30.21,30.11,29.99,10,10,10,9,2,,0.00,0,,218
2012-11-24,60,50,39,46,40,32,100,67,34,30.11,30.04,29.98,10,10,10,9,6,21,0.00,0,,293
2012-11-25,57,47,37,50,40,34,100,85,66,30.21,30.15,30.11,10,9,4,9,4,,0.00,0,,3
2012-11-26,62,50,37,46,41,23,100,87,22,30.28,30.21,30.16,10,8,3,7,2,,0.00,0,,203
2012-11-27,64,55,46,55,52,46,100,91,52,30.22,30.18,30.11,10,9,5,8,1,,0.00,4,,324
2012-11-28,55,48,41,55,49,41,100,99,88,30.40,30.29,30.17,10,6,2,8,3,,0.00,5,,1
2012-11-29,60,50,41,61,49,41,100,96,63,30.45,30.40,30.38,10,9,3,12,5,17,0.00,1,,23
2012-11-30,66,58,50,66,54,25,100,92,27,30.39,30.34,30.12,10,10,10,9,7,17,0.00,2,,32